Probability
3 3 4 6 5 2 0 0 0 0 0 0 0 0 0 0 0 0 0 0 0 0 0 0 2 4 6 6 5 4 3 3 3 3 3 4 4 4 3 2 2 3 5 5 4 4 6 8 9
2 3 5 6 3 1 0 0 0 0 0 0 0 0 0 0 0 0 0 0 0 0 0 1 3 5 6 5 4 3 3 3 4 3 3 3 4 3 3 3 3 3 4 4 4 4 6 7 7
1 4 6 5 1 0 0 0 0 0 0 0 0 0 0 0 0 0 0 0 0 0 1 2 4 6 6 5 4 3 3 4 5 5 4 3 3 3 3 3 3 3 3 3 4 5 5 6 6
2 5 5 2 0 0 0 0 0 0 0 0 0 0 0 0 0 0 0 0 0 0 1 2 3 5 5 5 4 4 4 4 6 6 5 3 3 3 3 3 3 3 3 4 4 4 4 4 4
3 4 3 1 0 0 0 0 0 0 0 0 0 0 0 0 0 0 0 0 0 1 1 1 1 3 3 4 5 5 4 5 6 7 5 2 1 1 2 2 2 2 3 3 3 2 2 2 2
4 3 1 0 0 0 0 0 0 0 0 0 0 0 1 1 0 0 0 0 0 1 1 0 0 1 1 2 4 4 3 4 6 6 3 1 0 0 1 1 1 1 1 3 3 2 1 0 1
3 2 0 0 0 0 0 0 0 0 0 0 0 1 2 2 1 0 0 0 0 0 0 0 0 0 0 2 2 2 1 2 4 4 2 0 0 0 0 0 0 0 1 2 2 1 0 0 0
1 1 0 0 0 0 0 0 0 0 0 0 0 1 2 3 2 1 0 0 0 0 0 0 0 0 0 1 1 1 1 1 1 1 1 1 0 0 0 0 0 0 0 1 1 0 0 0 0
0 0 0 0 0 0 0 0 0 0 0 0 1 1 1 3 3 1 1 0 0 0 0 0 0 0 0 0 1 2 2 1 1 1 1 1 1 1 0 1 1 1 0 0 0 0 0 0 0
0 0 0 0 0 0 0 0 0 0 0 0 1 2 2 3 3 3 2 1 0 0 0 0 0 0 0 0 1 3 3 2 2 3 3 3 3 2 2 3 3 3 1 0 0 1 1 1 1
0 0 0 0 0 0 0 0 0 0 0 0 1 2 3 3 3 3 2 1 0 0 0 0 0 0 1 2 2 3 4 3 3 5 6 5 4 4 4 5 6 5 3 2 1 2 2 2 2
0 0 0 0 0 0 0 0 0 0 0 0 1 2 3 3 3 2 1 0 0 1 1 1 1 1 2 3 3 4 4 4 4 6 6 6 5 4 4 5 6 7 6 4 3 2 2 2 1
0 0 0 0 0 0 0 0 0 0 0 1 1 3 3 3 3 1 0 1 2 3 3 3 3 3 4 5 5 4 4 4 5 7 7 7 7 6 5 5 7 7 6 4 3 2 1 1 0
0 0 0 0 0 0 0 0 0 0 1 2 3 3 3 3 2 1 0 2 4 5 4 4 4 4 5 5 5 5 5 5 6 8 8 9 9 8 7 7 7 7 6 5 4 2 1 0 0
0 0 1 1 1 0 0 0 0 0 1 3 4 3 3 2 1 0 0 1 3 4 4 3 3 4 4 4 5 6 6 5 6 8 10 11 11 9 9 9 7 6 6 6 5 4 2 1 0
0 0 1 2 2 0 0 0 0 0 1 4 5 4 3 2 1 1 0 0 1 3 3 3 3 3 4 4 5 6 6 5 6 8 10 10 9 7 8 8 7 7 6 7 6 5 4 2 1
0 0 1 1 1 0 0 0 1 1 3 5 6 5 4 3 2 2 1 0 1 2 3 3 3 4 5 6 6 6 6 7 7 8 8 6 5 5 5 6 7 6 6 7 7 6 6 4 4
0 0 0 0 0 0 0 1 2 3 4 6 6 6 4 3 3 3 2 1 0 1 3 3 4 5 7 7 6 6 7 7 8 9 8 5 3 3 3 4 5 5 6 6 6 6 6 6 6
0 0 0 0 0 0 1 2 3 3 4 6 6 6 4 3 3 3 3 2 1 2 3 5 6 7 8 8 7 6 5 5 7 9 9 6 4 3 4 4 4 4 5 4 5 5 4 4 5
0 0 0 1 0 0 2 3 3 3 3 5 6 5 5 4 3 3 3 2 2 3 5 7 8 9 9 9 8 7 5 4 5 8 9 7 4 3 4 5 4 4 4 3 4 5 3 2 4
0 0 0 0 0 0 1 2 3 3 3 3 4 5 5 4 3 2 2 2 2 3 4 6 7 9 10 10 9 8 7 6 6 7 9 7 5 3 4 4 4 3 3 4 4 4 3 2 2
0 0 0 0 0 0 0 1 3 4 3 3 4 6 6 4 1 1 2 3 3 2 3 3 4 7 9 10 11 11 10 9 8 8 8 8 6 4 3 3 3 3 4 5 5 4 3 1 1
0 0 0 0 0 0 0 1 3 4 4 4 5 6 6 4 2 2 4 4 3 2 2 1 2 5 9 12 14 15 13 12 10 9 9 9 8 6 5 4 4 4 5 6 7 6 4 3 2
0 0 0 0 0 0 0 1 2 3 3 4 5 6 5 5 5 4 4 3 2 1 1 1 2 5 9 12 15 15 14 12 11 10 10 9 9 8 6 7 9 9 8 9 11 10 8 6 6
0 0 0 0 0 0 0 1 3 3 3 5 6 6 6 7 6 5 3 3 2 2 2 4 5 7 9 11 12 11 10 10 11 11 10 9 8 7 7 10 14 15 14 13 14 13 11 9 9
0 0 0 0 0 0 0 2 4 6 6 7 8 8 7 8 7 5 3 4 6 6 6 7 9 9 9 10 9 8 8 9 11 11 11 10 8 7 8 12 17 17 15 15 15 14 12 12 12
0 0 0 0 0 0 1 4 6 8 9 10 10 9 8 8 7 6 6 7 8 9 8 9 10 10 10 11 11 10 10 11 12 13 13 12 11 10 10 14 17 16 15 16 16 14 14 15 15
0 0 0 0 0 0 1 4 7 8 8 10 10 8 7 8 8 7 6 7 8 9 9 9 10 10 9 10 11 10 11 12 12 13 15 15 14 13 13 15 17 16 15 18 19 18 18 19 19
0 0 0 0 0 0 0 2 4 5 5 7 8 6 6 7 8 7 6 6 8 8 8 8 7 7 6 7 8 8 8 9 9 11 14 16 16 16 16 17 18 17 15 18 21 21 21 22 21
0 0 0 0 0 0 0 0 1 2 2 4 6 6 5 6 8 7 6 6 7 9 8 6 4 3 4 5 7 7 6 6 7 10 12 15 17 17 17 19 20 17 15 17 19 20 21 22 22
Wind_Speed
11 9 5 5 6 3 10 9 8 7 7 8 8 7 8 10 9 8 6 6 6 7 8 9 7 6 6 6 6 6 6 6 7 7 6 6 6 5 6 6 7 7 8 8 8 8 8 9 9
8 5 6 6 1 7 10 8 9 9 8 6 7 7 9 10 9 7 5 6 5 7 7 8 8 6 6 6 6 6 6 6 6 6 6 6 6 5 5 6 6 7 7 8 8 8 8 9 9
6 6 6 2 6 9 10 9 9 8 6 5 6 8 8 8 6 5 6 6 6 7 7 10 7 7 6 7 6 6 6 6 6 6 6 6 5 5 5 5 6 7 7 7 8 8 8 9 9
5 6 5 2 11 10 8 8 6 7 7 6 6 8 8 7 5 6 7 6 6 6 7 10 7 7 7 6 6 6 6 6 6 6 5 6 6 6 5 5 6 6 7 7 8 8 8 8 8
5 4 2 8 11 9 8 7 5 6 7 6 7 9 9 6 6 7 6 5 5 6 7 9 8 6 6 6 6 6 6 5 5 5 5 5 6 5 5 5 6 6 6 7 7 7 7 7 8
4 3 4 8 11 8 8 6 5 8 8 7 7 8 8 6 6 6 6 5 5 6 6 7 9 7 6 6 6 6 6 5 5 5 5 5 5 5 5 5 5 6 6 6 6 6 6 6 6
3 2 7 9 9 9 7 5 6 7 8 8 5 7 8 7 6 6 6 6 5 5 5 5 5 7 7 7 6 6 6 5 5 5 5 5 4 4 5 5 5 5 5 5 5 5 5 5 5
4 0 7 8 8 9 7 6 6 6 8 6 4 6 7 7 6 6 7 6 5 5 5 4 4 4 3 6 7 6 5 4 4 4 4 3 4 4 5 5 5 4 4 4 4 4 4 4 5
4 1 8 8 7 8 6 6 6 6 8 7 7 8 9 8 6 6 7 6 5 5 4 4 3 3 2 3 5 5 5 4 3 4 3 2 2 2 3 6 5 4 4 4 3 3 3 4 6
2 5 10 7 6 6 6 5 5 5 8 8 9 9 9 7 6 6 6 6 5 4 4 3 3 2 2 2 3 1 2 3 2 2 2 1 2 1 2 6 4 4 4 4 4 3 5 5 4
3 7 7 6 6 5 6 6 5 4 6 6 8 9 8 7 6 6 5 5 5 4 3 3 3 2 2 2 1 1 1 2 2 2 2 2 1 1 1 2 4 4 4 3 4 4 2 1 2
4 6 5 5 5 4 5 5 6 6 8 7 8 9 8 7 6 5 5 5 4 3 4 3 3 3 3 2 1 2 2 1 2 2 1 1 1 1 1 1 1 1 1 1 1 1 2 2 2
5 6 5 5 5 5 5 6 6 7 8 9 10 9 8 6 6 5 5 4 4 3 3 3 3 3 2 2 1 2 2 2 2 1 1 1 1 0 1 1 1 0 1 1 1 1 2 1 2
4 4 5 5 6 5 6 6 5 7 9 10 9 8 7 6 6 5 4 3 3 2 2 3 2 3 2 2 1 1 1 2 2 1 2 1 1 1 0 1 1 0 0 1 0 1 1 1 1
3 4 6 5 5 5 5 7 6 7 8 9 8 7 6 5 5 4 3 2 2 2 2 1 2 2 2 1 1 1 1 2 1 1 1 1 1 1 1 0 0 0 0 1 0 0 1 2 2
4 4 5 5 3 3 4 7 8 7 8 7 7 7 5 4 4 3 3 2 2 1 2 1 1 2 2 1 1 1 1 1 1 1 0 1 1 1 2 1 1 1 0 1 1 1 1 1 1
4 2 4 6 3 2 1 7 7 6 6 6 6 6 5 5 3 3 2 2 2 1 1 1 0 1 0 0 0 0 1 1 1 1 1 1 1 1 2 1 1 1 1 0 0 1 0 1 1
2 3 3 3 4 1 2 6 7 6 5 5 6 5 5 4 4 3 2 2 2 2 2 1 1 1 1 1 1 0 0 0 0 1 1 2 1 1 2 1 1 2 1 0 0 0 0 1 1
1 1 2 4 3 2 3 4 6 6 5 5 5 5 5 4 4 4 3 3 3 2 2 2 1 1 1 0 1 0 0 0 0 1 1 1 1 1 1 1 1 2 0 1 1 1 1 1 1
2 1 3 4 3 1 3 3 4 5 5 4 4 5 5 5 5 4 4 3 3 3 3 2 2 2 2 1 1 1 1 1 1 1 1 1 1 2 1 1 1 1 1 1 1 1 1 0 0
2 1 1 2 4 4 3 4 5 4 4 4 4 4 4 5 5 5 5 4 4 3 3 1 1 1 2 1 1 1 1 1 0 1 0 1 1 1 2 1 2 2 2 1 2 2 2 1 1
1 0 2 3 4 2 3 1 5 4 4 4 5 5 4 5 5 5 5 4 3 3 3 3 2 1 1 2 1 1 1 1 2 2 1 1 1 2 2 2 2 2 2 1 2 2 2 2 2
1 1 2 3 3 2 3 3 4 4 3 4 5 5 5 5 4 4 4 4 3 3 3 3 2 2 1 2 2 2 2 1 1 2 2 2 1 1 2 2 2 2 2 1 2 1 2 2 2
4 5 5 6 6 2 1 3 2 2 1 3 5 5 5 5 4 4 4 3 2 3 3 3 3 2 1 2 1 2 2 2 3 2 2 2 1 1 1 2 2 2 2 2 2 2 3 2 2
7 6 5 5 4 1 2 3 3 4 2 2 4 5 6 6 5 5 4 4 3 3 3 3 3 2 1 1 1 2 2 3 3 3 2 2 2 1 1 2 2 2 2 2 3 3 3 3 3
6 7 6 5 3 1 3 1 4 4 3 3 3 5 5 6 5 5 5 4 4 3 3 3 3 2 1 1 1 1 2 3 2 2 3 2 2 2 2 2 2 2 3 3 3 3 3 3 3
5 5 6 6 5 4 1 2 4 4 4 4 4 5 5 5 5 5 5 5 4 4 4 3 3 2 1 1 1 0 1 3 3 3 3 2 2 2 2 2 2 2 2 2 3 2 2 2 3
4 4 4 6 5 5 3 4 2 5 3 4 4 4 4 5 5 5 5 5 4 4 4 3 3 2 1 1 1 1 1 1 2 3 3 3 3 3 2 2 2 2 2 3 3 3 3 3 3
5 5 5 5 6 7 3 1 5 3 3 3 4 4 4 5 5 5 5 4 4 4 4 3 2 2 1 0 0 1 1 1 2 2 2 2 2 2 2 2 3 3 3 2 3 3 3 4 4
6 6 7 6 5 6 6 2 6 3 3 3 3 4 4 4 4 5 5 4 4 3 3 3 2 2 1 0 0 1 1 2 2 2 2 2 2 3 2 3 3 3 3 3 3 4 3 4 4
Wind_Direction
181 183 207 233 229 105 71 64 62 67 64 57 50 44 49 40 31 65 74 85 94 103 107 116 105 103 105 108 108 111 115 115 116 118 118 118 115 111 110 112 117 120 124 126 128 132 139 144 145
179 190 228 239 260 85 73 65 65 61 76 83 69 62 64 62 54 79 88 92 105 103 105 103 102 102 101 103 101 103 110 111 112 111 112 114 115 112 109 112 117 119 121 125 125 127 135 141 143
189 228 259 257 55 61 72 69 73 80 77 69 75 59 54 61 64 71 83 108 108 100 104 101 104 99 97 99 96 95 103 109 110 107 108 108 109 107 104 106 114 119 123 127 124 125 129 134 139
217 225 232 79 74 63 68 74 83 94 80 60 74 81 74 49 49 81 102 111 110 111 110 102 103 97 98 99 94 89 90 97 102 103 103 102 99 98 101 107 111 115 123 127 126 125 127 131 136
238 251 143 87 77 73 70 70 67 70 74 76 77 87 81 67 79 97 109 115 108 101 98 102 103 97 98 96 95 92 88 86 91 101 102 104 103 99 97 98 104 110 118 126 128 126 129 131 136
242 240 84 79 82 80 76 73 72 74 82 83 83 89 82 92 96 98 102 100 95 97 99 105 122 114 106 101 97 94 89 85 81 87 96 99 101 99 99 100 102 108 113 122 126 127 129 135 140
296 43 75 80 87 84 70 69 64 74 79 67 63 84 98 91 91 102 97 94 91 94 97 99 117 123 132 114 97 93 88 83 79 83 89 92 95 98 101 105 103 109 113 116 122 132 132 139 150
299 295 85 79 79 79 81 81 69 70 80 73 47 75 94 100 108 106 101 95 88 86 92 96 95 95 115 121 114 111 103 94 95 93 92 100 115 118 123 125 106 108 111 115 124 134 144 153 162
260 101 71 62 63 78 89 95 87 85 96 84 63 68 96 116 120 117 109 99 89 83 83 88 82 82 90 94 114 135 133 122 143 128 122 165 115 114 140 94 104 113 112 117 121 135 151 173 172
289 62 64 54 53 78 91 87 101 116 100 97 97 97 111 123 123 110 98 94 85 74 74 81 67 69 82 84 101 110 115 114 110 81 93 93 70 55 75 121 132 130 139 152 143 157 182 204 170
37 58 70 72 67 77 99 98 99 103 84 90 110 118 121 124 119 109 99 87 79 75 67 74 81 78 70 79 90 79 83 97 113 86 75 76 59 71 98 130 149 159 175 164 154 179 167 133 101
74 69 66 73 74 78 88 97 93 72 67 90 111 120 124 123 112 104 100 93 88 72 67 57 64 70 56 44 60 85 78 88 77 81 31 69 49 22 56 79 77 129 126 105 98 113 103 102 119
82 76 79 88 95 92 100 94 89 91 98 108 117 123 122 118 111 101 95 94 94 85 76 74 61 73 82 78 25 66 64 54 79 55 62 29 54 39 77 63 52 38 92 125 122 105 101 135 151
71 86 100 107 113 117 115 107 108 104 121 123 127 127 124 119 109 108 111 108 99 81 75 80 84 96 92 97 81 63 73 79 46 61 48 1 357 24 41 128 93 56 41 46 34 117 130 161 147
138 131 123 113 125 129 145 116 99 120 133 133 134 127 125 125 121 114 111 113 104 94 74 86 107 104 95 75 87 104 79 71 55 57 49 333 334 350 301 354 292 29 57 133 218 182 155 181 165
197 186 127 112 126 151 236 98 110 139 145 141 141 140 144 139 132 122 119 117 97 90 109 91 60 104 106 70 356 22 31 46 40 32 7 348 332 307 291 307 341 345 259 173 173 204 158 159 161
190 121 94 118 119 146 210 101 123 152 155 151 155 153 153 148 154 143 142 141 126 121 127 128 73 53 45 87 214 241 70 13 350 350 343 355 327 308 291 317 352 273 260 231 244 105 186 160 178
66 75 86 96 112 152 115 108 134 157 166 163 162 163 162 161 160 155 156 143 138 137 144 144 159 125 257 214 186 223 39 326 329 316 339 319 315 302 292 271 285 271 257 239 34 119 196 231 211
353 28 71 77 102 168 120 120 138 158 175 174 174 176 177 168 154 155 162 161 156 151 159 161 179 151 206 223 277 261 24 300 277 273 336 298 303 297 272 295 253 272 260 304 270 241 191 186 208
237 225 120 119 133 208 124 123 135 160 181 188 187 182 182 174 166 164 172 175 173 167 178 183 184 187 215 177 252 295 317 307 323 331 5 310 298 281 231 240 264 279 243 222 237 219 246 266 218
226 276 51 118 155 185 191 161 141 152 176 179 187 188 184 183 176 171 173 181 184 181 186 182 184 194 224 235 224 224 225 255 278 286 268 306 307 288 289 259 267 267 259 212 232 218 224 240 206
196 46 198 187 216 158 242 163 131 156 172 188 190 184 180 174 174 173 171 176 186 184 175 173 174 191 214 225 243 266 298 320 328 309 340 331 323 309 288 266 259 262 270 242 239 196 234 231 220
53 148 206 215 240 240 213 265 112 147 181 183 181 179 174 168 169 172 171 167 178 179 177 169 163 187 211 231 212 244 266 291 307 311 329 309 307 298 289 270 264 263 261 250 258 238 246 235 235
162 180 192 215 234 242 306 277 91 115 174 157 158 165 164 158 157 159 154 151 163 168 174 162 151 168 205 229 237 249 280 300 312 307 312 301 308 297 299 258 250 253 263 242 225 226 214 240 247
213 235 229 219 215 165 123 265 52 69 88 134 146 147 152 155 159 157 157 157 157 159 154 143 140 153 182 217 257 274 283 278 282 291 296 307 320 320 312 280 252 260 256 251 231 215 228 221 218
228 262 284 296 301 139 179 234 81 85 98 109 129 138 148 153 156 159 160 158 156 151 147 143 136 138 145 172 253 288 291 283 292 300 307 312 310 318 315 281 262 262 259 252 231 223 215 211 218
223 249 291 285 276 271 205 157 132 129 133 130 132 138 150 157 158 157 155 154 153 152 150 151 143 141 133 124 175 254 309 317 323 311 290 298 304 299 300 281 268 258 258 258 246 234 230 219 223
276 268 258 273 282 269 216 213 154 145 139 134 139 146 145 152 153 151 149 151 150 150 144 144 139 139 140 130 295 101 351 328 319 308 328 323 316 316 302 297 288 274 254 232 238 233 227 226 227
200 224 257 274 287 289 274 96 75 126 137 148 142 141 145 149 151 149 150 152 150 149 143 146 154 169 164 134 350 342 324 322 305 301 308 306 307 310 302 295 286 277 262 246 239 249 233 231 231
241 244 241 254 256 275 287 87 87 107 130 131 131 132 135 141 145 147 148 151 155 154 153 161 181 190 181 143 269 297 303 304 297 302 302 298 296 292 292 286 273 263 259 251 246 251 247 240 238